Printer-friendly version
Follow the MPC on Twitter Follow the MPC on Facebook The MPC blog
Minor Planet Center

MPEC 2006-W110: 2006 WG130

The following Minor Planet Electronic Circular may be linked-to from your own Web pages, but must not otherwise be redistributed electronically.

A form allowing access to any MPEC is at the bottom of this page.


Read MPEC 2006-W109 Read MPEC 2006-W111


M.P.E.C. 2006-W110                               Issued 2006 Nov. 29, 15:54 UT

     The Minor Planet Electronic Circulars contain information on unusual
         minor planets and routine data on comets.  They are published
   on behalf of Commission 20 of the International Astronomical Union by the
          Minor Planet Center, Smithsonian Astrophysical Observatory,
                          Cambridge, MA 02138, U.S.A.

             Prepared using the Tamkin Foundation Computer Network

                              MPC@CFA.HARVARD.EDU
          URL http://cfa-www.harvard.edu/iau/mpc.html  ISSN 1523-6714

                                  2006 WG130

Observations:
     K06WD0G* C2006 11 27.25537 03 29 39.68 +20 02 19.1          19.1   EW110704
     K06WD0G  C2006 11 27.26805 03 29 48.63 +20 06 36.8          19.1   EW110704
     K06WD0G  C2006 11 27.28094 03 29 57.71 +20 10 56.4          19.1   EW110704
     K06WD0G  C2006 11 27.29356 03 30 06.60 +20 15 09.0          19.0   EW110704
     K06WD0G  C2006 11 27.30618 03 30 15.50 +20 19 20.9          19.2   EW110704
     K06WD0G EC2006 11 27.98505 03 38 39.75 +23 50 27.2                 EW110J95
     K06WD0G EC2006 11 27.98697 03 38 41.15 +23 51 01.3          19.5 R EW110J95
     K06WD0G  C2006 11 28.19077 03 41 09.44 +24 49 45.7          19.2   EW110704
     K06WD0G  C2006 11 28.21650 03 41 25.73 +24 56 57.3          19.3   EW110704
     K06WD0G  C2006 11 28.22938 03 41 33.85 +25 00 32.7          19.2   EW110704
     K06WD0G  C2006 11 28.24227 03 41 41.94 +25 04 07.4          19.5   EW110704
     K06WD0G  C2006 11 28.92326 03 49 14.06 +27 58 23.8                 EW110J95
     K06WD0G  C2006 11 28.92849 03 49 17.21 +27 59 38.9                 EW110J95
     K06WD0G  C2006 11 28.93116 03 49 18.76 +28 00 17.3          19.3 R EW110J95
     K06WD0G  C2006 11 29.11196 03 51 05.15 +28 42 31.1          19.0 V EW110J77
     K06WD0G  C2006 11 29.12661 03 51 13.82 +28 45 50.0          19.0 V EW110J77
     K06WD0G  C2006 11 29.33286 03 53 23.36 +29 33 13.3          19.2 R EW110854
     K06WD0G  C2006 11 29.34067 03 53 27.60 +29 34 55.7          19.3 R EW110854
     K06WD0G  C2006 11 29.34667 03 53 30.92 +29 36 13.6          19.3 R EW110854

Observer details:
704 Lincoln Laboratory ETS, New Mexico.  Observers M. Bezpalko, D. Torres,
    R. Kracke, G. Spitz, J. Kistler.  Measurers J. Stuart, S. Scruggs.  1.0-m
    f/2.15 reflector + CCD.
854 Sabino Canyon Observatory, Tucson.  Observer J. E. McGaha.  0.36-m f/10.0
    Schmidt-Cassegrain + CCD.
J77 Golden Hill Observatory, Stourton Caundle.  Observer R. Miles.  0.28-m
    f/10 Schmidt-Cassegrain + CCD.
J95 Great Shefford.  Observer P. Birtwhistle.  0.40-m f/6.0 Schmidt-Cassegrain
    + CCD.

Orbital elements:
2006 WG130                                               Earth MOID = 0.0302 AU
Epoch 2006 Sept. 22.0 TT = JDT 2454000.5                MPC
M 349.79865              (2000.0)            P               Q
n   0.26546994     Peri.  325.32074     +0.86137179     -0.47667264
a   2.3976870      Node    64.07903     +0.49896076     +0.72912860
e   0.5977536      Incl.   11.25634     +0.09527220     +0.49107503
P   3.71           H   24.7           G   0.15           U   7
Residuals in seconds of arc
061127 704  0.1-  0.5-    061128 704  0.0   0.6+    061129 J77  0.4+  0.6+
061127 704  0.0   0.7+    061128 704  0.1+  0.3-    061129 J77  0.1+  0.7+
061127 704  0.1-  0.5+    061128 704  0.4+  0.1-    061129 854  0.4+  0.0
061127 704  0.1-  0.2-    061128 704  0.5+  0.3+    061129 854  0.4-  0.5+
061127 704  0.0   0.7-    061128 J95  0.4-  0.1+    061129 854  0.1-  0.3+
061127 J95  0.9-  0.3-    061128 J95  0.3+  0.3-
061127 J95  0.9+  0.4+    061128 J95  0.1-  0.4-

Ephemeris:
2006 WG130               a,e,i = 2.40, 0.60, 11                  q = 0.9645
Date    TT    R. A. (2000) Decl.     Delta      r     Elong.  Phase     V
2006 11 21    01 33.99   -32 43.1    0.0387   1.007   118.9    59.2    19.8
2006 11 23    02 19.06   -14 16.8    0.0365   1.015   138.4    40.2    19.1
2006 11 25    02 56.40   +04 15.3    0.0395   1.024   157.2    22.0    18.8
2006 11 27    03 26.31   +18 34.4    0.0468   1.033   169.4    10.1    18.8
2006 11 29    03 50.00   +28 17.5    0.0569   1.043   170.5     9.0    19.2
2006 12 01    04 08.80   +34 44.2    0.0685   1.053   166.4    12.7    19.7
2006 12 03    04 23.83   +39 05.8    0.0811   1.063   162.7    16.0    20.2
2006 12 05    04 35.97   +42 08.0    0.0943   1.075   160.1    18.2    20.7
2006 12 07    04 45.88   +44 18.3    0.108    1.086   158.2    19.7    21.0
2006 12 09    04 54.05   +45 53.4    0.122    1.098   156.8    20.7    21.4
2006 12 11    05 00.86   +47 03.7    0.137    1.111   155.8    21.3    21.6

Kyle E. Smalley              (C) Copyright 2006 MPC           M.P.E.C. 2006-W110

Read MPEC 2006-W109 Read MPEC 2006-W111


MPEC number:

Enter an MPEC number in one of the following forms:

  • 1997-B01 (the full form)
  • J97B01 (the packed version of the full form)
  • B01 (the abbreviated form)

Valid HTML 4.01!